Doha, Qatar

10:14 PM +03 on June 23, 2017 (GMT +0300)
Doha International

Weather History for OTBD - May, 2014

Change the Weather History Date:

Wednesday, May 21, 2014

  Actual Average Record
Temperature  
Mean Temperature 89 °F -  
Max Temperature 96 °F 104 °F 113 °F (2002)
Min Temperature 82 °F 80 °F 80 °F (2013)
Cooling Degree Days 24    
Growing Degree Days 39 (Base 50)    
Moisture  
Dew Point 74 °F    
Average Humidity 60    
Maximum Humidity 79    
Minimum Humidity 38    
Precipitation  
Precipitation 0.00 in 0.00 in - ()
Sea Level Pressure  
Sea Level Pressure 29.77 in    
Wind  
Wind Speed 7 mph ()    
Max Wind Speed 12 mph    
Max Gust Speed -    
Visibility 5.6 miles    
Events      
Averages and records for this station are not official NWS values.
T = Trace of Precipitation, MM = Missing Value Source: Averaged Metar Reports

Daily Weather History Graph

Daily Weather History Graph

Search for Another Location

Airport or City:

Trip Planner

Search our weather history database for the weather conditions in past years. The results will help you decide how hot, cold, wet, or windy it might be!

Date:

Astronomy

May. 21, 2014 Rise Set
Actual Time 4:46 AM +03 6:14 PM +03
Civil Twilight 4:21 AM +03 6:39 PM +03
Nautical Twilight 3:51 AM +03 7:09 PM +03
Astronomical Twilight 3:20 AM +03 7:40 PM +03
Moon No Moon Rise 11:15 AM +03 (5/21)
Length of Visible Light 14h 18m
Length of Day
13h 27m
Waning Gibbous, 52% of the Moon is Illuminated
May 21
Waning Gibbous
May 21
Last Quarter
May 28
New
Jun 5
First Quarter
Jun 13
Full

Hourly Weather History & Observations

Time (+03) Temp. Heat Index Dew Point Humidity Pressure Visibility Wind Dir Wind Speed Gust Speed Precip Events Conditions
12:00 AM 83 °F - 75 °F 72% 29.78 in 6 mi NE 3.5 mph - -  
12:00 AM 84.2 °F 92.3 °F 75.2 °F 74% 29.77 in - NE 3.5 mph - N/A   Clear
1:00 AM 82.4 °F 89.5 °F 75.2 °F 79% 29.74 in 4.3 mi NE 3.5 mph - N/A   Unknown
2:00 AM 82.4 °F 89.5 °F 75.2 °F 79% 29.74 in 4.3 mi East 3.5 mph - N/A   Unknown
3:00 AM 82 °F - 72 °F 65% 29.76 in 5 mi East 8.1 mph - -   Haze
3:00 AM 82.4 °F 87.2 °F 71.6 °F 70% 29.74 in 5.0 mi East 8.1 mph - N/A   Unknown
3:30 AM 82.4 °F 87.2 °F 71.6 °F 70% 29.74 in - ESE 5.8 mph - N/A   Clear
4:00 AM 84.2 °F 89.6 °F 71.6 °F 66% 29.74 in - ESE 8.1 mph - N/A   Clear
4:30 AM 84.2 °F 88.4 °F 69.8 °F 62% 29.74 in - ESE 8.1 mph - N/A   Clear
5:00 AM 82.4 °F 86.3 °F 69.8 °F 66% 29.77 in - ESE 8.1 mph - N/A   Clear
5:30 AM 84.2 °F 88.4 °F 69.8 °F 62% 29.77 in - ESE 8.1 mph - N/A   Clear
6:00 AM 85 °F - 69 °F 50% 29.78 in 7 mi SE 6.9 mph - -   Clear
6:00 AM 86.0 °F 90.4 °F 69.8 °F 58% 29.77 in - SE 6.9 mph - N/A   Clear
6:30 AM 87.8 °F 92.6 °F 69.8 °F 55% 29.80 in - SSE 6.9 mph - N/A   Clear
7:00 AM 87.8 °F 91.4 °F 68.0 °F 52% 29.80 in - SSE 8.1 mph - N/A   Clear
7:30 AM 89.6 °F 92.2 °F 66.2 °F 46% 29.80 in - SE 10.4 mph - N/A   Clear
8:00 AM 91.4 °F 93.2 °F 64.4 °F 41% 29.80 in - SE 10.4 mph - N/A   Clear
9:30 AM 93.2 °F 97.7 °F 68.0 °F 44% 29.83 in - SE 11.5 mph - N/A   Clear
10:00 AM 93.2 °F 97.7 °F 68.0 °F 44% 29.83 in - SE 11.5 mph - N/A   Clear
10:30 AM 95.0 °F 99.5 °F 68.0 °F 41% 29.80 in - SE 11.5 mph - N/A   Clear
11:00 AM 96.8 °F 103.1 °F 69.8 °F 41% 29.80 in - SE 11.5 mph - N/A   Clear
11:30 AM 96.8 °F 103.1 °F 69.8 °F 41% 29.80 in - SE 11.5 mph - N/A   Clear
12:00 PM 96 °F - 73 °F 38% 29.81 in 9 mi ESE 10.4 mph - -  
12:00 PM 96.8 °F 107.3 °F 73.4 °F 47% 29.80 in - ESE 10.4 mph - N/A   Clear
12:30 PM 95.0 °F 107.4 °F 75.2 °F 53% 29.80 in - East 10.4 mph - N/A   Clear
1:00 PM 93.2 °F 107.2 °F 77.0 °F 59% 29.80 in - East 11.5 mph - N/A   Clear
1:30 PM 93.2 °F 107.2 °F 77.0 °F 59% 29.77 in - East 9.2 mph - N/A   Clear
2:00 PM 93.2 °F 107.2 °F 77.0 °F 59% 29.77 in - East 10.4 mph - N/A   Clear
2:30 PM 93.2 °F 107.2 °F 77.0 °F 59% 29.77 in - East 9.2 mph - N/A   Clear
3:00 PM 93 °F - 77 °F 50% 29.77 in 7 mi East 9.2 mph - -  
3:00 PM 93.2 °F 107.2 °F 77.0 °F 59% 29.77 in - East 9.2 mph - N/A   Clear
3:30 PM 93.2 °F 107.2 °F 77.0 °F 59% 29.74 in - East 10.4 mph - N/A   Clear
4:00 PM 93.2 °F 107.2 °F 77.0 °F 59% 29.74 in - East 8.1 mph - N/A   Clear
4:30 PM 91.4 °F 105.1 °F 77.0 °F 63% 29.74 in - Variable 9.2 mph - N/A   Clear
5:00 PM 91.4 °F 105.1 °F 77.0 °F 63% 29.74 in - East 8.1 mph - N/A   Clear
6:00 PM 89 °F - 78 °F 64% 29.76 in 6 mi NE 9.2 mph - -   Haze
6:00 PM 89.6 °F 104.7 °F 78.8 °F 70% 29.74 in 5.6 mi NE 9.2 mph - N/A   Unknown
7:00 PM 87.8 °F 102.5 °F 78.8 °F 75% 29.74 in 5.0 mi North 11.5 mph - N/A   Unknown
8:00 PM 86.0 °F 99.3 °F 78.8 °F 79% 29.77 in 5.6 mi NNE 8.1 mph - N/A   Unknown
9:00 PM 86.0 °F 99.3 °F 78.8 °F 79% 29.74 in 5.0 mi NE 5.8 mph - N/A   Unknown
10:00 PM 86.0 °F 99.3 °F 78.8 °F 79% 29.77 in 4.3 mi ENE 5.8 mph - N/A   Unknown
11:00 PM 86.0 °F 96.9 °F 77.0 °F 74% 29.74 in 5.0 mi NNE 3.5 mph - N/A   Unknown